Location: St. Andrews
(45.0670°N, 67.0330°W)
Time: 09:06:42
(UTC-04:00)

Amateur Radio Satellites - All Passes

Search period start: 31 January 2015 08:36
Search period end: 01 February 2015 08:36
Location: St. Andrews, 45.0670°N, 67.0330°W

Satellite Date Start Highest point End Downlink Frequencies (MHz)
Time Altitude Azimuth
ANTELSAT 31 Jan 08:44:26 08:46:27 13° 60° (ENE) 08:48:39 437.575/2403.000
HO-68 31 Jan 08:47:23 08:53:59 39° 96° (E) 09:00:37 435.675
PHONESAT 2.4 31 Jan 08:48:20 08:50:58 19° 158° (SSE) 08:53:39 2401.200-2431.200
TIGRISAT 31 Jan 08:50:27 08:52:53 14° 61° (ENE) 08:55:28 435.000
CUTE-I 31 Jan 08:53:50 08:56:22 13° 304° (WNW) 08:58:39 437.470
CANX-2 31 Jan 08:55:54 08:59:52 38° 97° (E) 09:03:49 2200.000
AAUSAT CUBESAT 2 31 Jan 09:00:20 09:03:44 24° 94° (E) 09:07:11 437.432
QB50P1 31 Jan 09:02:26 09:02:38 10° 59° (ENE) 09:03:03 145.935-145.965
VERMONT LUNAR 31 Jan 09:14:16 09:17:23 31° 168° (SSE) 09:20:31 437.305
BEESAT 2 31 Jan 09:14:47 09:17:25 16° 35° (NE) 09:20:06 435.950
POLYITAN 1 31 Jan 09:16:23 09:18:41 15° 62° (ENE) 09:21:11 437.675
CUTE 1.7 + AOD 2 31 Jan 09:19:35 09:23:48 64° 101° (E) 09:27:59 437.475
AIST 2 31 Jan 09:22:24 09:23:47 11° 28° (NNE) 09:25:15 435.215
BEESAT 3 31 Jan 09:26:26 09:29:35 20° 39° (NE) 09:32:46 437.485
UWE-3 31 Jan 09:26:29 09:28:59 15° 88° (E) 09:31:37 435.000/436.395/437.385
CINEMA 3 31 Jan 09:28:33 09:32:54 33° 94° (E) 09:37:06 145.822/145.860
Oscar 11 31 Jan 09:28:53 09:32:28 25° 94° (E) 09:36:04 145.826/435.025
POPSAT HIP 1 31 Jan 09:34:14 09:37:26 21° 65° (ENE) 09:40:44 437.405
DUCHIFAT 1 31 Jan 09:35:34 09:38:47 21° 65° (ENE) 09:42:06 145.980
UNISAT 6 31 Jan 09:42:06 09:46:31 43° 71° (ENE) 09:50:58 437.425
SEEDS 31 Jan 09:47:16 09:51:29 75° 285° (WNW) 09:55:39 437.485
GOMX 1 31 Jan 09:54:57 10:00:21 63° 287° (WNW) 10:05:27 467.674
VELOX 1 31 Jan 09:56:24 09:57:36 11° 86° (E) 09:59:04 145.980
DOVE 4 31 Jan 09:57:06 10:02:21 79° 284° (WNW) 10:07:17 437.250
UKube-1 31 Jan 10:05:13 10:09:11 33° 97° (E) 10:13:09 .
NANOSAT C BR1 31 Jan 10:09:38 10:13:44 47° 71° (ENE) 10:17:53 145.865
BRITE-PL 31 Jan 10:10:46 10:15:57 36° 293° (WNW) 10:20:52 437.365/2234.400
COMPASS 1 31 Jan 10:10:51 10:14:54 49° 287° (WNW) 10:18:54 437.405
HUMSAT D 31 Jan 10:11:01 10:14:03 19° 91° (E) 10:17:10 437.325/437.525
SO-50 31 Jan 10:12:13 10:16:40 54° 120° (ESE) 10:21:19 436.795
ANTELSAT 31 Jan 10:17:56 10:22:40 86° 257° (WSW) 10:27:23 437.575/2403.000
DELFI C3 31 Jan 10:18:14 10:22:17 70° 102° (ESE) 10:26:18 145.870
ZACube-1 31 Jan 10:24:11 10:28:29 48° 98° (E) 10:32:41 437.345
TIGRISAT 31 Jan 10:24:23 10:29:07 77° 258° (WSW) 10:33:50 435.000
QB50P2 31 Jan 10:25:03 10:29:19 70° 75° (ENE) 10:33:38 145.880/145.840
PHONESAT 2.4 31 Jan 10:25:40 10:29:02 38° 174° (S) 10:32:27 2401.200-2431.200
CUBEBUG 2 31 Jan 10:26:03 10:30:39 73° 102° (ESE) 10:35:03 437.445
DX 1 31 Jan 10:28:24 10:32:46 61° 101° (ESE) 10:37:08 434.975-435.025
GONETS M04 31 Jan 10:31:53 10:36:51 17° 53° (NE) 10:42:13
CANX-2 31 Jan 10:32:22 10:35:37 21° 294° (WNW) 10:38:45 2200.000
QB50P1 31 Jan 10:33:35 10:37:52 85° 76° (ENE) 10:42:12 145.935-145.965
BUGSAT 1 31 Jan 10:34:02 10:38:06 66° 74° (ENE) 10:42:17 437.445
HO-68 31 Jan 10:35:04 10:41:50 46° 296° (WNW) 10:48:32 435.675
FUNcube-1 31 Jan 10:35:21 10:39:45 63° 100° (E) 10:44:01 145.935
AAUSAT CUBESAT 2 31 Jan 10:35:45 10:39:27 31° 291° (WNW) 10:43:05 437.432
POLYITAN 1 31 Jan 10:49:54 10:54:11 64° 259° (WSW) 10:58:31 437.675
VERMONT LUNAR 31 Jan 10:51:52 10:55:08 38° 184° (S) 10:58:25 437.305
BEESAT 2 31 Jan 10:52:02 10:56:15 87° 237° (WSW) 11:00:24 435.950
RS-15 31 Jan 10:52:31 11:01:59 31° 17° (NNE) 11:11:54 29.354- 29.394
CUTE 1.7 + AOD 2 31 Jan 10:57:02 10:59:18 14° 297° (WNW) 11:01:23 437.475
AIST 2 31 Jan 10:59:14 11:03:28 50° 50° (NE) 11:07:36 435.215
UWE-3 31 Jan 11:01:35 11:06:02 57° 287° (WNW) 11:10:17 435.000/436.395/437.385
50 SAT 31 Jan 11:01:55 11:05:53 50° 99° (E) 11:09:47 437.505
AISAT 31 Jan 11:03:17 11:07:45 56° 100° (E) 11:12:11 437.250
BEESAT 3 31 Jan 11:03:59 11:08:06 59° 239° (WSW) 11:12:09 437.485
Oscar 11 31 Jan 11:04:50 11:08:43 32° 291° (WNW) 11:12:31 145.826/435.025
CINEMA 3 31 Jan 11:05:49 11:10:04 30° 293° (WNW) 11:14:05 145.822/145.860
AIST 1 31 Jan 11:06:47 11:10:47 42° 93° (E) 11:14:52
POPSAT HIP 1 31 Jan 11:09:03 11:13:06 40° 262° (W) 11:17:12 437.405
DUCHIFAT 1 31 Jan 11:10:24 11:14:26 39° 262° (W) 11:18:30 145.980
ESTCUBE 1 31 Jan 11:13:20 11:17:24 32° 96° (E) 11:21:30 437.505/2401.250
UNISAT 6 31 Jan 11:19:46 11:23:31 23° 268° (W) 11:27:10 437.425
VELOX 1 31 Jan 11:30:21 11:34:52 80° 287° (WNW) 11:39:21 145.980
CUBEBUG 1 31 Jan 11:32:00 11:36:19 47° 99° (E) 11:40:37 437.445
GOMX 1 31 Jan 11:36:16 11:37:26 11° 305° (NW) 11:38:19 467.674
DOVE 4 31 Jan 11:37:05 11:39:16 12° 303° (WNW) 11:41:10 437.250
TISAT 1 31 Jan 11:39:33 11:41:43 14° 88° (E) 11:44:05 437.305
UKube-1 31 Jan 11:41:35 11:45:15 26° 293° (WNW) 11:48:49 .
HUMSAT D 31 Jan 11:46:06 11:50:05 40° 289° (WNW) 11:53:59 437.325/437.525
NANOSAT C BR1 31 Jan 11:46:58 11:49:55 17° 270° (W) 11:52:45 145.865
SO-50 31 Jan 11:53:37 11:57:34 26° 321° (NW) 12:01:33 436.795
DELFI C3 31 Jan 11:55:24 11:57:02 12° 298° (WNW) 11:58:31 145.870
ZACube-1 31 Jan 12:01:25 12:04:33 19° 296° (WNW) 12:07:31 437.345
PHONESAT 2.4 31 Jan 12:03:56 12:07:15 34° 191° (S) 12:10:35 2401.200-2431.200
QB50P2 31 Jan 12:04:06 12:05:49 12° 273° (W) 12:07:20 145.880/145.840
CUBEBUG 2 31 Jan 12:04:21 12:06:47 14° 299° (WNW) 12:09:01 437.445
DX 1 31 Jan 12:05:53 12:08:36 16° 298° (WNW) 12:11:10 434.975-435.025
PCSat 31 Jan 12:11:31 12:16:22 32° 46° (NE) 12:21:15 145.827
BUGSAT 1 31 Jan 12:12:33 12:14:11 12° 273° (W) 12:15:36 437.445
FUNcube-1 31 Jan 12:13:03 12:15:38 15° 298° (WNW) 12:18:02 145.935
Oscar 19 31 Jan 12:14:53 12:19:28 33° 67° (ENE) 12:24:06 437.125/150
HO-68 31 Jan 12:26:33 12:27:58 10° 316° (NW) 12:29:00 435.675
GONETS M04 31 Jan 12:26:59 12:35:41 72° 78° (ENE) 12:44:23
VERMONT LUNAR 31 Jan 12:30:05 12:32:47 21° 201° (SSW) 12:35:28 437.305
ITAMSAT 1 31 Jan 12:37:04 12:40:45 21° 62° (ENE) 12:44:36 435.822/435.867
50 SAT 31 Jan 12:38:07 12:40:39 16° 296° (WNW) 12:43:01 437.505
AIST 2 31 Jan 12:38:37 12:41:46 20° 247° (WSW) 12:44:46 435.215
AO-7 31 Jan 12:40:09 12:41:42 11° 36° (NE) 12:43:39 29.400- 29.500
AISAT 31 Jan 12:40:57 12:44:00 18° 297° (WNW) 12:46:55 437.250
SPROUT 31 Jan 12:44:24 12:48:47 70° 102° (ESE) 12:53:07 437.525
AIST 1 31 Jan 12:45:44 12:48:45 18° 292° (WNW) 12:51:40
ESTCUBE 1 31 Jan 12:50:20 12:54:14 28° 293° (WNW) 12:58:03 437.505/2401.250
SWISSCUBE 31 Jan 13:05:35 13:09:05 20° 91° (E) 13:12:42 437.505
RS-15 31 Jan 13:05:50 13:17:04 66° 47° (NE) 13:28:50 29.354- 29.394
CUBEBUG 1 31 Jan 13:09:08 13:12:25 20° 295° (WNW) 13:15:35 437.445
VELOX 1 31 Jan 13:10:04 13:10:46 10° 302° (WNW) 13:11:13 145.980
TISAT 1 31 Jan 13:13:45 13:18:00 59° 287° (WNW) 13:22:13 437.305
BEESAT 31 Jan 13:20:35 13:24:34 26° 94° (E) 13:28:37 436.000
DANDE 31 Jan 13:21:25 13:22:20 10° 45° (NE) 13:23:35 436.750
ITUPSAT 1 31 Jan 13:25:50 13:29:59 29° 95° (E) 13:34:10 437.325
CUSAT 1 31 Jan 13:36:42 13:39:46 14° 51° (NE) 13:42:43 437.405
PHONESAT 2.4 31 Jan 13:43:09 13:45:16 15° 206° (SSW) 13:47:20 2401.200-2431.200
Gurwin Techsat 1B 31 Jan 13:45:53 13:51:02 54° 71° (ENE) 13:56:14 435.225
Oscar 19 31 Jan 13:54:02 13:58:48 35° 264° (W) 14:03:31 437.125/150
PCSat 31 Jan 13:54:47 13:59:59 46° 245° (WSW) 14:05:07 145.827
HORYU 2 31 Jan 13:55:49 13:59:08 21° 64° (ENE) 14:02:33 437.375
ITAMSAT 1 31 Jan 14:14:45 14:19:52 60° 259° (W) 14:25:02 435.822/435.867
SPROUT 31 Jan 14:22:07 14:24:23 14° 298° (WNW) 14:26:28 437.525
AO-7 31 Jan 14:24:49 14:32:18 39° 58° (ENE) 14:39:54 29.400- 29.500
GONETS M04 31 Jan 14:24:55 14:31:50 26° 278° (W) 14:38:28
STARS 31 Jan 14:29:30 14:32:27 18° 91° (E) 14:35:30 437.465
KKS-1 31 Jan 14:40:23 14:44:28 33° 96° (E) 14:48:33 437.445
SWISSCUBE 31 Jan 14:42:38 14:47:16 48° 289° (WNW) 14:51:51 437.505
JAS-2 31 Jan 14:57:19 15:00:45 18° 61° (ENE) 15:04:17 435.910
BEESAT 31 Jan 14:58:08 15:02:33 38° 291° (WNW) 15:06:56 436.000
DANDE 31 Jan 15:01:30 15:08:06 56° 72° (ENE) 15:12:59 436.750
ITUPSAT 1 31 Jan 15:03:36 15:07:57 35° 292° (WNW) 15:12:15 437.325
CUSAT 1 31 Jan 15:18:06 15:24:22 89° 91° (E) 15:28:55 437.405
RS-15 31 Jan 15:18:41 15:29:09 43° 249° (WSW) 15:39:50 29.354- 29.394
O/OREOS (USA 219) 31 Jan 15:26:03 15:29:38 24° 104° (ESE) 15:33:20 437.305
Gurwin Techsat 1B 31 Jan 15:27:20 15:31:25 22° 269° (W) 15:35:22 435.225
HORYU 2 31 Jan 15:31:14 15:35:34 44° 261° (W) 15:39:53 437.375
M-CUBED/EXP-1 PRIME 31 Jan 15:56:19 15:59:31 41° 105° (ESE) 16:02:48 437.505
STARS 31 Jan 16:04:56 16:09:16 49° 289° (WNW) 16:13:32 437.465
AO-7 31 Jan 16:16:42 16:24:54 56° 259° (WSW) 16:33:06 29.400- 29.500
KKS-1 31 Jan 16:17:13 16:21:01 27° 294° (WNW) 16:24:45 437.445
AUBIESAT-1 31 Jan 16:27:22 16:30:43 85° 291° (WNW) 16:34:10 437.475
MOZHAYETS 4 31 Jan 16:36:54 16:40:40 25° 93° (E) 16:44:30
Cubesat XI-IV 31 Jan 16:38:08 16:42:05 22° 62° (ENE) 16:46:11 437.490
JAS-2 31 Jan 16:40:09 16:45:31 64° 258° (WSW) 16:50:41 435.910
DANDE 31 Jan 16:46:02 16:50:46 21° 279° (W) 16:54:30 436.750
CUTE-I 31 Jan 16:56:39 17:01:12 30° 65° (ENE) 17:05:52 437.470
SO-50 31 Jan 17:01:57 17:05:23 19° 33° (NNE) 17:08:55 436.795
CUSAT 1 31 Jan 17:04:02 17:05:56 11° 284° (WNW) 17:07:24 437.405
O/OREOS (USA 219) 31 Jan 17:04:41 17:08:54 38° 302° (WNW) 17:13:09 437.305
M-CUBED/EXP-1 PRIME 31 Jan 17:32:31 17:34:17 14° 300° (WNW) 17:35:59 437.505
YUBILEINY 31 Jan 17:38:51 17:40:28 11° 72° (ENE) 17:42:48 435.215
STRAND 1 31 Jan 18:07:22 18:09:41 13° 87° (E) 18:12:16 437.568
MOZHAYETS 4 31 Jan 18:13:49 18:18:01 35° 291° (WNW) 18:22:09
Cubesat XI-IV 31 Jan 18:16:35 18:21:50 58° 259° (W) 18:27:07 437.490
CUBESAT XI-V 31 Jan 18:36:09 18:40:26 34° 96° (E) 18:44:44 437.345
CUTE-I 31 Jan 18:36:11 18:41:11 40° 263° (W) 18:46:12 437.470
SO-50 31 Jan 18:41:44 18:46:42 85° 57° (ENE) 18:51:38 436.795
SEEDS 31 Jan 19:08:58 19:10:12 11° 61° (ENE) 19:11:38 437.485
PRISM 31 Jan 19:11:02 19:15:13 78° 285° (WNW) 19:19:22 437.425
HO-68 31 Jan 19:18:15 19:24:36 37° 62° (ENE) 19:31:03 435.675
YUBILEINY 31 Jan 19:27:09 19:35:34 60° 92° (E) 19:44:07 435.215
GOMX 1 31 Jan 19:27:33 19:31:45 26° 64° (ENE) 19:36:13 467.674
DOVE 4 31 Jan 19:28:17 19:31:52 20° 62° (ENE) 19:35:40 437.250
COMPASS 1 31 Jan 19:30:24 19:32:51 16° 64° (ENE) 19:35:27 437.405
STRAND 1 31 Jan 19:44:27 19:49:38 82° 286° (WNW) 19:54:48 437.568
BRITE-PL 31 Jan 19:44:30 19:49:28 47° 70° (ENE) 19:54:48 437.365/2234.400
CANX-2 31 Jan 19:50:54 19:54:49 37° 71° (ENE) 19:58:48 2200.000
CUBEBUG 2 31 Jan 19:53:18 19:54:30 11° 59° (ENE) 19:55:57 437.445
AAUSAT CUBESAT 2 31 Jan 19:53:43 19:57:01 23° 67° (ENE) 20:00:23 437.432
CUBESAT XI-V 31 Jan 20:13:46 20:17:49 28° 293° (WNW) 20:21:47 437.345
CUTE 1.7 + AOD 2 31 Jan 20:14:20 20:18:33 59° 73° (ENE) 20:22:47 437.475
SO-50 31 Jan 20:24:03 20:26:41 14° 250° (WSW) 20:29:06 436.795
UWE-3 31 Jan 20:25:32 20:28:41 19° 64° (ENE) 20:31:59 435.000/436.395/437.385
Oscar 11 31 Jan 20:25:48 20:29:23 26° 67° (ENE) 20:33:04 145.826/435.025
CINEMA 3 31 Jan 20:31:42 20:36:19 40° 70° (ENE) 20:41:03 145.822/145.860
SEEDS 31 Jan 20:41:13 20:45:29 83° 257° (WSW) 20:49:45 437.485
VELOX 1 31 Jan 20:55:59 20:58:19 15° 61° (ENE) 21:00:50 145.980
UKube-1 31 Jan 21:02:12 21:06:10 37° 69° (ENE) 21:10:13 .
DOVE 4 31 Jan 21:04:02 21:09:08 66° 260° (W) 21:14:27 437.250
COMPASS 1 31 Jan 21:04:03 21:08:12 55° 260° (W) 21:12:22 437.405
GOMX 1 31 Jan 21:04:33 21:09:34 49° 263° (W) 21:14:51 467.674
HUMSAT D 31 Jan 21:05:17 21:08:25 20° 65° (ENE) 21:11:39 437.325/437.525
HO-68 31 Jan 21:05:18 21:12:12 49° 261° (W) 21:19:06 435.675
DELFI C3 31 Jan 21:08:16 21:12:16 57° 74° (ENE) 21:16:17 145.870
AIST 1 31 Jan 21:12:56 21:15:18 15° 66° (ENE) 21:17:50
ZACube-1 31 Jan 21:21:48 21:26:15 51° 72° (ENE) 21:30:45 437.345
BRITE-PL 31 Jan 21:23:55 21:28:16 26° 270° (W) 21:32:45 437.365/2234.400
ISS 31 Jan 21:24:56 21:28:03 42° 143° (SE) 21:31:11 145.825
YUBILEINY 31 Jan 21:25:14 21:33:00 34° 294° (WNW) 21:40:38 435.215
CUBEBUG 2 31 Jan 21:25:42 21:30:29 78° 75° (ENE) 21:35:17 437.445
STRAND 1 31 Jan 21:25:46 21:28:07 13° 303° (WNW) 21:30:16 437.568
DX 1 31 Jan 21:25:51 21:30:11 69° 73° (ENE) 21:34:33 434.975-435.025
CANX-2 31 Jan 21:27:31 21:30:55 22° 268° (W) 21:34:14 2200.000
AAUSAT CUBESAT 2 31 Jan 21:28:40 21:32:32 34° 264° (W) 21:36:23 437.432
FUNcube-1 31 Jan 21:32:43 21:37:16 65° 74° (ENE) 21:41:51 145.935
50 SAT 31 Jan 21:51:08 21:55:02 41° 71° (ENE) 21:58:57 437.505
CUTE 1.7 + AOD 2 31 Jan 21:52:39 21:54:57 14° 272° (W) 21:57:04 437.475
UWE-3 31 Jan 22:00:14 22:04:51 57° 260° (W) 22:09:31 435.000/436.395/437.385
Oscar 11 31 Jan 22:01:34 22:05:30 32° 265° (W) 22:09:24 145.826/435.025
AISAT 31 Jan 22:03:11 22:07:36 65° 73° (ENE) 22:12:05 437.250
CINEMA 3 31 Jan 22:09:23 22:13:39 27° 267° (W) 22:17:55 145.822/145.860
ANTELSAT 31 Jan 22:09:35 22:12:25 17° 89° (E) 22:15:20 437.575/2403.000
QB50P2 31 Jan 22:12:06 22:12:13 10° 86° (E) 22:12:38 145.880/145.840
ESTCUBE 1 31 Jan 22:15:03 22:19:11 38° 70° (ENE) 22:23:23 437.505/2401.250
TIGRISAT 31 Jan 22:15:30 22:18:35 19° 90° (E) 22:21:46 435.000
QB50P1 31 Jan 22:19:01 22:20:43 12° 87° (E) 22:22:38 145.935-145.965
VELOX 1 31 Jan 22:30:00 22:34:25 69° 258° (WSW) 22:38:54 145.980
CUBEBUG 1 31 Jan 22:30:11 22:34:23 50° 72° (ENE) 22:38:40 437.445
TISAT 1 31 Jan 22:34:25 22:36:46 15° 63° (ENE) 22:39:18 437.305
POLYITAN 1 31 Jan 22:34:39 22:37:39 19° 91° (E) 22:40:44 437.675
UKube-1 31 Jan 22:39:03 22:42:30 22° 267° (W) 22:45:53 .
HUMSAT D 31 Jan 22:39:47 22:43:58 44° 262° (W) 22:48:09 437.325/437.525
DELFI C3 31 Jan 22:45:55 22:47:57 13° 272° (W) 22:49:48 145.870
AIST 1 31 Jan 22:49:09 22:53:27 58° 264° (W) 22:57:45
POPSAT HIP 1 31 Jan 22:52:40 22:56:22 28° 94° (E) 23:00:06 437.405
DUCHIFAT 1 31 Jan 22:53:39 22:57:22 28° 95° (E) 23:01:06 145.980
ZACube-1 31 Jan 22:59:40 23:02:58 18° 270° (W) 23:06:07 437.345
ISS 31 Jan 23:01:27 23:04:34 39° 341° (NNW) 23:07:42 145.825
DX 1 31 Jan 23:05:04 23:07:00 12° 272° (W) 23:08:44 434.975-435.025
CUBEBUG 2 31 Jan 23:05:35 23:07:51 13° 274° (W) 23:09:52 437.445
UNISAT 6 31 Jan 23:08:55 23:13:23 70° 102° (ESE) 23:17:42 437.425
FUNcube-1 31 Jan 23:11:29 23:14:08 15° 272° (W) 23:16:35 145.935
50 SAT 31 Jan 23:27:25 23:30:23 18° 269° (W) 23:33:13 437.505
NANOSAT C BR1 31 Jan 23:28:32 23:32:50 67° 101° (ESE) 23:37:05 145.865
GONETS M04 31 Jan 23:38:38 23:43:07 16° 76° (ENE) 23:48:05
SPROUT 31 Jan 23:40:25 23:44:42 69° 75° (ENE) 23:49:03 437.525
AISAT 31 Jan 23:42:24 23:44:46 14° 272° (W) 23:46:56 437.250
QB50P2 31 Jan 23:44:30 23:48:50 81° 285° (WNW) 23:53:08 145.880/145.840
ANTELSAT 31 Jan 23:45:17 23:49:36 50° 289° (WNW) 23:53:48 437.575/2403.000
BUGSAT 1 31 Jan 23:49:50 23:54:10 88° 99° (E) 23:58:27 437.445
TIGRISAT 31 Jan 23:51:24 23:55:40 44° 289° (WNW) 23:59:47 435.000
ESTCUBE 1 31 Jan 23:52:38 23:56:14 23° 267° (W) 23:59:46 437.505/2401.250
QB50P1 31 Jan 23:52:52 23:57:10 67° 286° (WNW) 00:01:25 145.935-145.965
O/OREOS (USA 219) 31 Jan 23:56:08 23:57:09 11° 42° (NE) 23:58:22 437.305
TISAT 1 01 Feb 00:07:58 00:12:11 61° 259° (W) 00:16:27 437.305
CUBEBUG 1 01 Feb 00:08:12 00:11:08 17° 270° (W) 00:13:56 437.445
POLYITAN 1 01 Feb 00:09:44 00:13:52 44° 289° (WNW) 00:17:56 437.675
SWISSCUBE 01 Feb 00:14:08 00:18:13 30° 66° (ENE) 00:22:22 437.505
POPSAT HIP 1 01 Feb 00:28:29 00:32:17 29° 292° (WNW) 00:35:59 437.405
BEESAT 01 Feb 00:29:03 00:33:24 38° 68° (ENE) 00:37:49 436.000
DUCHIFAT 1 01 Feb 00:29:27 00:33:13 29° 292° (WNW) 00:36:54 145.980
ITUPSAT 1 01 Feb 00:34:38 00:39:05 41° 69° (ENE) 00:43:35 437.325
ISS 01 Feb 00:38:49 00:41:37 25° 1° (N) 00:44:25 145.825
UNISAT 6 01 Feb 00:47:16 00:49:40 14° 299° (WNW) 00:51:51 437.425
BEESAT 2 01 Feb 00:51:54 00:52:48 11° 109° (ESE) 00:53:55 435.950
BEESAT 3 01 Feb 01:01:23 01:03:50 16° 112° (ESE) 01:06:27 437.485
NANOSAT C BR1 01 Feb 01:05:56 01:08:14 14° 298° (WNW) 01:10:22 145.865
SPROUT 01 Feb 01:19:34 01:21:24 12° 273° (W) 01:23:01 437.525
BUGSAT 1 01 Feb 01:27:48 01:29:04 11° 300° (WNW) 01:30:07 437.445
STARS 01 Feb 01:28:38 01:31:57 21° 65° (ENE) 01:35:23 437.465
GONETS M04 01 Feb 01:29:55 01:38:38 77° 96° (E) 01:47:22
O/OREOS (USA 219) 01 Feb 01:32:59 01:37:35 67° 64° (ENE) 01:42:09 437.305
KKS-1 01 Feb 01:40:30 01:44:40 39° 70° (ENE) 01:48:54 437.445
AUBIESAT-1 01 Feb 01:44:53 01:47:15 17° 62° (ENE) 01:49:38 437.475
SWISSCUBE 01 Feb 01:51:43 01:56:02 33° 264° (W) 02:00:21 437.505
Gurwin Techsat 1B 01 Feb 02:01:00 02:04:33 18° 89° (E) 02:08:17 435.225
Oscar 19 01 Feb 02:02:58 02:08:08 72° 103° (ESE) 02:13:15 437.125/150
BEESAT 01 Feb 02:07:22 02:11:23 26° 266° (W) 02:15:20 436.000
ITUPSAT 1 01 Feb 02:13:20 02:17:11 24° 267° (W) 02:20:58 437.325
ISS 01 Feb 02:15:26 02:18:38 44° 21° (NNE) 02:21:49 145.825
ITAMSAT 1 01 Feb 02:25:35 02:30:32 42° 98° (E) 02:35:30 435.822/435.867
BEESAT 2 01 Feb 02:26:17 02:30:26 84° 305° (NW) 02:34:39 435.950
DANDE 01 Feb 02:33:25 02:37:51 16° 79° (E) 02:42:47 436.750
AIST 2 01 Feb 02:37:25 02:41:34 55° 121° (ESE) 02:45:48 435.215
BEESAT 3 01 Feb 02:37:31 02:41:35 58° 309° (NW) 02:45:42 437.485
CUSAT 1 01 Feb 02:45:09 02:51:02 23° 83° (E) 02:57:09 437.405
M-CUBED/EXP-1 PRIME 01 Feb 02:47:20 02:51:16 87° 249° (WSW) 02:54:54 437.505
PCSat 01 Feb 02:57:12 03:00:27 17° 106° (ESE) 03:03:57 145.827
STARS 01 Feb 03:03:56 03:08:12 43° 262° (W) 03:12:29 437.465
O/OREOS (USA 219) 01 Feb 03:14:03 03:16:30 14° 260° (W) 03:18:45 437.305
KKS-1 01 Feb 03:17:56 03:21:30 22° 267° (W) 03:25:01 437.445
AUBIESAT-1 01 Feb 03:18:20 03:22:01 41° 255° (WSW) 03:25:28 437.475
HORYU 2 01 Feb 03:20:53 03:24:45 29° 95° (E) 03:28:39 437.375
GONETS M04 01 Feb 03:29:25 03:36:34 26° 299° (WNW) 03:43:28
RS-15 01 Feb 03:34:14 03:42:50 30° 106° (ESE) 03:51:51 29.354- 29.394
Gurwin Techsat 1B 01 Feb 03:39:47 03:45:04 63° 288° (WNW) 03:50:19 435.225
MOZHAYETS 4 01 Feb 03:40:54 03:44:52 31° 68° (ENE) 03:48:55
Oscar 19 01 Feb 03:43:35 03:46:58 17° 300° (WNW) 03:50:10 437.125/150
JAS-2 01 Feb 03:47:08 03:50:02 14° 88° (E) 03:53:25 435.910
ISS 01 Feb 03:52:02 03:55:04 34° 219° (SW) 03:58:05 145.825
ITAMSAT 1 01 Feb 04:05:26 04:09:54 28° 295° (WNW) 04:14:16 435.822/435.867
BEESAT 2 01 Feb 04:06:50 04:09:21 15° 326° (NW) 04:11:47 435.950
DANDE 01 Feb 04:11:46 04:20:08 69° 96° (E) 04:28:36 436.750
AO-7 01 Feb 04:15:49 04:23:45 47° 99° (E) 04:31:41 29.400- 29.500
AIST 2 01 Feb 04:17:05 04:20:31 22° 320° (NW) 04:23:56 435.215
BEESAT 3 01 Feb 04:18:57 04:20:39 12° 330° (NNW) 04:22:14 437.485
CUSAT 1 01 Feb 04:24:52 04:33:18 90° 104° (ESE) 04:41:33 437.405
PRISM 01 Feb 04:31:27 04:32:33 11° 60° (ENE) 04:33:51 437.425
PCSat 01 Feb 04:37:54 04:43:19 76° 304° (NW) 04:48:47 145.827
HORYU 2 01 Feb 04:57:32 05:01:25 30° 293° (WNW) 05:05:14 437.375
MOZHAYETS 4 01 Feb 05:18:04 05:22:07 30° 266° (W) 05:26:07
Gurwin Techsat 1B 01 Feb 05:23:13 05:24:08 10° 306° (NW) 05:24:45 435.225
STRAND 1 01 Feb 05:24:34 05:28:38 25° 64° (ENE) 05:32:48 437.568
JAS-2 01 Feb 05:30:07 05:35:52 90° 100° (E) 05:42:23 435.910
YUBILEINY 01 Feb 05:34:50 05:42:29 33° 66° (ENE) 05:50:19 435.215
CUBESAT XI-V 01 Feb 05:41:35 05:45:53 41° 70° (ENE) 05:50:16 437.345
RS-15 01 Feb 05:43:12 05:54:10 81° 308° (NW) 06:05:17 29.354- 29.394
DANDE 01 Feb 05:56:36 06:04:15 34° 296° (WNW) 06:11:39 436.750
PRISM 01 Feb 06:03:25 06:07:32 80° 257° (WSW) 06:11:40 437.425
AO-7 01 Feb 06:08:46 06:16:36 46° 299° (WNW) 06:24:17 29.400- 29.500
CUSAT 1 01 Feb 06:10:41 06:17:24 24° 300° (WNW) 06:23:38 437.405
PCSat 01 Feb 06:24:04 06:27:43 18° 325° (NW) 06:31:16 145.827
Cubesat XI-IV 01 Feb 06:31:46 06:36:59 49° 99° (E) 06:42:12 437.490
CUTE-I 01 Feb 06:50:44 06:56:08 70° 102° (ESE) 07:01:30 437.470
STRAND 1 01 Feb 07:02:42 07:07:36 46° 261° (W) 07:12:33 437.568
JAS-2 01 Feb 07:16:59 07:20:29 16° 300° (WNW) 07:23:58 435.910
CUBESAT XI-V 01 Feb 07:19:56 07:23:33 22° 268° (W) 07:27:08 437.345
YUBILEINY 01 Feb 07:31:19 07:39:57 62° 268° (W) 07:48:32 435.215
BRITE-PL 01 Feb 07:48:59 07:52:05 15° 84° (E) 07:55:21 437.365/2234.400
RS-15 01 Feb 07:58:47 08:08:31 34° 337° (NNW) 08:18:23 29.354- 29.394
AO-7 01 Feb 08:04:09 08:07:25 12° 322° (NW) 08:10:18 29.400- 29.500
Cubesat XI-IV 01 Feb 08:12:25 08:16:51 26° 297° (WNW) 08:21:10 437.490
PHONESAT 2.4 01 Feb 08:12:32 08:15:00 18° 156° (SSE) 08:17:31 2401.200-2431.200
SEEDS 01 Feb 08:25:24 08:27:37 14° 89° (E) 08:30:00 437.485
